Location: Newark
(54.4000°N, 32.4500°E)
Time: 23:11:46
(UTC+00:00)

Envisat - Pass Details

Date: 27 January 2020
Orbit: 764 x 766 km, 98.1° (Epoch: 19 February)

Event Time Altitude Azimuth Distance (km) Brightness Sun altitude
Rises 03:14:49 0° 25° (NNE) 3,246 6.6 -22.0°
Reaches altitude 10° 03:17:55 10° 45° (NE) 2,314 6.0 -21.5°
Maximum altitude 03:21:17 18° 86° (E) 1,836 5.9 -21.0°
Drops below altitude 10° 03:24:39 10° 128° (SE) 2,302 6.2 -20.5°
Sets 03:27:43 0° 148° (SSE) 3,222 6.8 -20.1°
